Location: Hungerford
(51.4167°N, 1.5167°W)
Time: 14:27:13
(UTC+00:00)

MOS 1 - Pass Details

Date: 18 September 2020
Orbit: 878 x 891 km, 99.1° (Epoch: 27 October)

Event Time Altitude Azimuth Distance (km) Brightness Sun altitude
Exits shadow 19:23:24 - 151° (SSE) 3,024 6.7 -11.7°
Reaches altitude 10° 19:24:36 10° 150° (SSE) 2,554 6.3 -11.8°
Maximum altitude 19:30:14 67° 69° (ENE) 970 4.3 -12.7°
Drops below altitude 10° 19:35:55 10° 348° (NNW) 2,573 7.1 -13.5°
Sets 19:38:20 0° 346° (NNW) 3,517 7.9 -13.9°
